#timestamp,LO_Frequency,Hit,Temp,Hum 
1487055615.8,286046997.8,N,0.0,0.0
1487055635.6,286046995.9,Y,0.0,0.0
1487055655.5,286046997.3,N,0.0,0.0
1487055675.3,286046994.9,Y,0.0,0.0
1487055695.1,286046998.9,N,0.0,0.0
1487055715.9,286047001.1,N,0.0,0.0
1487055735.7,286046998.1,N,0.0,0.0
1487055755.5,286046998.3,N,0.0,0.0
1487055775.4,286046997.2,N,0.0,0.0
1487055795.2,286046999.6,N,0.0,0.0
1487055815.0,286047001.1,N,0.0,0.0
1487055815.9,286047001.1,N,0.0,0.0
1487055835.8,286047000.4,N,0.0,0.0
1487055855.6,286046998.7,N,0.0,0.0
1487055875.4,286046998.4,N,0.0,0.0
1487055895.3,286047000.5,N,0.0,0.0
1487055915.1,286046998.5,N,0.0,0.0
1487055916.0,286046998.5,N,0.0,0.0
1487055935.8,286046999.3,N,0.0,0.0
1487055955.7,286047000.6,N,0.0,0.0
1487055975.5,286046998.7,N,0.0,0.0
1487055995.3,286046998.9,N,0.0,0.0
1487056015.1,286046997.0,N,0.0,0.0
1487056035.9,286046996.8,N,0.0,0.0
1487056055.7,286046997.7,N,0.0,0.0
1487056075.5,286046996.6,N,0.0,0.0
1487056095.4,286046995.1,Y,0.0,0.0
1487056115.2,286046998.9,N,0.0,0.0
1487056135.1,286046994.9,Y,0.0,0.0
1487056136.0,286046994.9,N,0.0,0.0
1487056155.8,286046999.3,N,0.0,0.0
1487056175.6,286046997.3,N,0.0,0.0
1487056195.4,286046999.6,N,0.0,0.0
1487056215.3,286046999.4,N,0.0,0.0
1487056235.1,286046998.9,N,0.0,0.0
1487056255.8,286046998.9,N,0.0,0.0
1487056275.7,286046999.5,N,0.0,0.0
1487056295.5,286046997.7,N,0.0,0.0
1487056315.0,286046996.7,N,0.0,0.0
1487056316.0,286046996.7,N,0.0,0.0
1487056335.8,286046997.0,N,0.0,0.0
1487056355.6,286046997.1,N,0.0,0.0
1487056375.4,286046995.5,N,0.0,0.0
1487056395.3,286046997.0,N,0.0,0.0
1487056415.1,286046997.7,N,0.0,0.0
1487056435.8,286046997.6,N,0.0,0.0
1487056455.7,286046996.1,N,0.0,0.0
1487056475.5,286046995.6,N,0.0,0.0
1487056495.3,286046995.0,Y,0.0,0.0
1487056515.2,286047001.1,N,0.0,0.0
1487056535.0,286047001.1,N,0.0,0.0
1487056535.9,286047001.1,N,0.0,0.0
1487056555.7,286047000.4,N,0.0,0.0
1487056575.1,286046998.4,N,0.0,0.0
1487056576.0,286046998.4,N,0.0,0.0
1487056595.8,286046998.6,N,0.0,0.0
1487056615.7,286047000.0,N,0.0,0.0
1487056635.5,286047000.9,N,0.0,0.0
1487056655.3,286047001.2,N,0.0,0.0
1487056675.1,286046999.8,N,0.0,0.0
1487056695.9,286047000.9,N,0.0,0.0
1487056715.7,286047001.1,N,0.0,0.0
1487056735.5,286046998.1,N,0.0,0.0
1487056755.4,286046996.6,N,0.0,0.0
1487056775.2,286046999.6,N,0.0,0.0
1487056795.0,286046997.1,N,0.0,0.0
1487056795.9,286046997.1,N,0.0,0.0
1487056815.8,286046997.9,N,0.0,0.0
1487056835.6,286046999.1,N,0.0,0.0
1487056855.4,286046997.7,N,0.0,0.0
1487056875.3,286046995.0,N,0.0,0.0
1487056895.1,286046997.1,N,0.0,0.0
1487056915.8,286046995.3,N,0.0,0.0
1487056935.7,286046999.2,N,0.0,0.0
1487056955.8,286046995.3,N,0.0,0.0
1487056975.6,286046997.2,N,0.0,0.0
1487056995.5,286046997.6,N,0.0,0.0
1487057015.3,286046995.5,N,0.0,0.0
1487057035.1,286046997.6,N,0.0,0.0
1487057055.9,286046995.4,N,0.0,0.0
1487057075.7,286046994.5,N,0.0,0.0
1487057095.5,286046993.3,Y,0.0,0.0
1487057115.4,286046992.1,Y,0.0,0.0
1487057135.2,286046994.0,N,0.0,0.0
1487057155.0,286046993.3,N,0.0,0.0
1487057155.9,286046993.3,N,0.0,0.0
1487057175.8,286046994.2,N,0.0,0.0
1487057195.6,286046996.4,N,0.0,0.0
1487057215.4,286046994.5,N,0.0,0.0
1487057235.3,286046994.4,N,0.0,0.0
1487057255.1,286046993.4,N,0.0,0.0
1487057256.0,286046993.4,N,0.0,0.0
1487057275.8,286046993.4,N,0.0,0.0
1487057295.7,286046995.6,N,0.0,0.0
1487057315.5,286046995.7,N,0.0,0.0
1487057335.3,286046999.2,N,0.0,0.0
1487057355.9,286046997.4,N,0.0,0.0
1487057375.7,286046995.0,N,0.0,0.0
1487057395.6,286046995.3,N,0.0,0.0
1487057415.4,286046997.6,N,0.0,0.0
1487057435.2,286046996.6,N,0.0,0.0
1487057455.1,286046996.6,N,0.0,0.0
1487057456.0,286046996.6,N,0.0,0.0
1487057475.8,286046995.6,N,0.0,0.0
1487057495.6,286046996.4,N,0.0,0.0
1487057515.5,286046996.0,N,0.0,0.0
1487057535.3,286046996.0,N,0.0,0.0
1487057555.1,286046996.4,N,0.0,0.0
1487057575.9,286046994.2,Y,0.0,0.0
1487057595.7,286046999.2,N,0.0,0.0
1487057615.5,286046999.5,N,0.0,0.0
1487057635.4,286046998.4,N,0.0,0.0
1487057655.2,286046998.3,N,0.0,0.0
1487057675.0,286047000.5,N,0.0,0.0
1487057675.9,286047000.5,N,0.0,0.0
1487057695.8,286047000.6,N,0.0,0.0
1487057715.6,286047000.9,N,0.0,0.0
1487057735.4,286046997.1,N,0.0,0.0
1487057755.2,286046998.2,N,0.0,0.0
1487057775.1,286047001.1,N,0.0,0.0
1487057776.0,286047001.1,N,0.0,0.0
1487057795.8,286046997.3,N,0.0,0.0
1487057815.7,286046997.7,N,0.0,0.0
1487057835.5,286046996.0,N,0.0,0.0
1487057855.3,286046996.3,N,0.0,0.0
1487057875.1,286046995.3,N,0.0,0.0
1487057895.9,286046997.5,N,0.0,0.0
1487057915.1,286046994.9,N,0.0,0.0
1487057916.0,286046994.9,N,0.0,0.0
1487057935.8,286046995.5,N,0.0,0.0
1487057955.6,286046992.3,Y,0.0,0.0
1487057975.5,286046995.5,N,0.0,0.0
1487057995.6,286046996.1,N,0.0,0.0
1487058015.4,286046998.0,N,0.0,0.0
1487058035.2,286046995.0,N,0.0,0.0
1487058055.1,286046995.6,N,0.0,0.0
1487058056.0,286046995.6,N,0.0,0.0
1487058075.8,286046996.0,N,0.0,0.0
1487058095.6,286046994.0,N,0.0,0.0
1487058115.5,286046993.7,N,0.0,0.0
1487058135.3,286046994.3,N,0.0,0.0
1487058155.1,286046995.9,N,0.0,0.0
1487058175.2,286046994.0,N,0.0,0.0
1487058195.0,286046992.6,Y,0.0,0.0
1487058196.0,286046992.6,Y,0.0,0.0
1487058215.8,286047002.5,N,0.0,0.0
1487058235.6,286046999.3,N,0.0,0.0
1487058255.4,286047000.4,N,0.0,0.0
1487058275.3,286047000.5,N,0.0,0.0
1487058295.1,286047000.3,N,0.0,0.0
1487058315.8,286047000.0,N,0.0,0.0
1487058335.7,286046999.2,N,0.0,0.0
1487058355.5,286046996.5,N,0.0,0.0
1487058375.3,286046996.9,N,0.0,0.0
1487058395.2,286046996.6,N,0.0,0.0
1487058415.9,286046999.1,N,0.0,0.0
1487058435.7,286046996.5,N,0.0,0.0
1487058455.6,286046997.1,N,0.0,0.0
1487058475.4,286046995.0,N,0.0,0.0
1487058495.2,286046995.3,N,0.0,0.0
1487058515.1,286046996.1,N,0.0,0.0
1487058516.0,286046996.1,N,0.0,0.0
1487058535.8,286046995.5,N,0.0,0.0
1487058555.6,286046997.7,N,0.0,0.0
1487058575.8,286046996.7,N,0.0,0.0
1487058595.7,286046997.7,N,0.0,0.0
1487058615.5,286046995.7,N,0.0,0.0
1487058635.3,286046996.0,N,0.0,0.0
1487058655.2,286046993.7,N,0.0,0.0
1487058675.9,286046997.6,N,0.0,0.0
1487058695.7,286046995.6,N,0.0,0.0
1487058715.6,286046993.8,N,0.0,0.0
1487058735.4,286046991.7,Y,0.0,0.0
1487058755.2,286046999.4,N,0.0,0.0
1487058775.1,286046998.9,N,0.0,0.0
1487058776.0,286046998.9,N,0.0,0.0
1487058795.4,286046998.5,N,0.0,0.0
1487058815.2,286046995.2,N,0.0,0.0
1487058835.0,286046995.4,N,0.0,0.0
1487058835.9,286046995.4,N,0.0,0.0
1487058855.8,286046995.2,N,0.0,0.0
1487058875.6,286046995.0,N,0.0,0.0
1487058895.4,286046996.3,N,0.0,0.0
1487058915.3,286046995.1,N,0.0,0.0
1487058935.1,286046995.8,N,0.0,0.0
1487058936.0,286046995.8,N,0.0,0.0
1487058955.8,286046995.2,N,0.0,0.0
1487058975.6,286046995.4,N,0.0,0.0
1487058995.5,286046993.3,Y,0.0,0.0
1487059015.3,286046995.1,N,0.0,0.0
1487059035.2,286046997.7,N,0.0,0.0
1487059055.9,286046995.3,N,0.0,0.0
1487059075.7,286046995.3,N,0.0,0.0
1487059095.6,286046997.3,N,0.0,0.0
1487059115.4,286046995.4,N,0.0,0.0
1487059135.2,286046995.0,Y,0.0,0.0
1487059155.1,286047001.2,N,0.0,0.0
1487059156.0,286047001.2,N,0.0,0.0
1487059175.8,286046998.9,N,0.0,0.0
1487059195.7,286047001.0,N,0.0,0.0
